Location: Holbach
(51.5399°N, 10.6036°E)
Time: 03:54:31
(UTC+00:00)

ATLAS 3B R/B - Pass Details

Date: 18 September 2020
Orbit: 1016 x 1179 km, 63.8° (Epoch: 04 October)

Event Time Altitude Azimuth Distance (km) Brightness Sun altitude
Rises 19:30:29 0° 312° (NW) 3,804 7.1 -19.5°
Reaches altitude 10° 19:33:10 10° 317° (NW) 2,866 6.0 -19.9°
Maximum altitude 19:39:46 52° 33° (NNE) 1,324 3.1 -20.8°
Enters shadow 19:42:49 32° 91° (E) 1,786 3.4 -21.2°
